2019-073A

Last updated on Nov. 7, 2019, 12:02 a.m. UTC

1 44709U 19073A   19309.39904418  .00130753  53028-6  68867-2 0  9994
2 44709  28.5100 306.4642 7308494 180.0285 169.3086  2.28038828    22
UTC
Height (km)
Latitude
Longitude
Inclination
Orbital Period
UTC large
Height (km)
Speed (km/s)
/
Latitude / Longitude
Inclination (degrees)
Orbital Period (minutes)
Azimuth
Elevation
Range (km)
Doppler Factor
iOS Compass Heading
iOS Angle

Next 30 passes for location: Hong Kong

Rise time Rise Azimuth (degrees) Set time Set Azimuth (degrees) Duration Max altitude (degrees)

No matching passes for this satellites